MHU123 RJSS-RJFU

Flight info

Callsign MHU123
Flight time 1h 58m
Altitude 36000
Route DERBY4 GTC V30 KMC Y45 MIHOU Y14 DGC Y204 OHGIE SARUK
Aircraft A319/M-SDE3FGHIRWY/LB1

Departure

Time 2026-04-11 11:45
Airport Sendai Airport (RJSS)

Arrival

Time 2026-04-11 13:43
Airport Nagasaki Airport (RJFU)
Time Latitude Longitude Altitude Speed Heading
2026-04-11 11:08 38.13875 140.92794 -43 ft 0 kts 172°
2026-04-11 11:13 38.13876 140.92794 -43 ft 0 kts 172°
2026-04-11 11:22 38.13876 140.92793 12 ft 0 kts 172°
2026-04-11 11:30 38.13877 140.92793 12 ft 0 kts 172°
2026-04-11 11:36 38.13898 140.92790 14 ft 4 kts 174°
2026-04-11 11:37 38.13925 140.92787 13 ft 4 kts 175°
2026-04-11 11:37 38.13951 140.92783 13 ft 4 kts 169°
2026-04-11 11:37 38.13977 140.92774 13 ft 4 kts 160°
2026-04-11 11:37 38.14001 140.92760 13 ft 4 kts 122°
2026-04-11 11:38 38.14005 140.92747 14 ft 0 kts 82°
2026-04-11 11:41 38.14005 140.92752 14 ft 1 kts 82°
2026-04-11 11:41 38.14007 140.92772 15 ft 3 kts 82°
2026-04-11 11:41 38.14011 140.92808 15 ft 5 kts 82°
2026-04-11 11:41 38.14017 140.92859 14 ft 7 kts 82°
2026-04-11 11:42 38.14024 140.92925 13 ft 8 kts 82°
2026-04-11 11:42 38.14033 140.93005 13 ft 10 kts 82°
2026-04-11 11:42 38.14042 140.93098 13 ft 11 kts 85°
2026-04-11 11:42 38.14050 140.93205 13 ft 13 kts 82°
2026-04-11 11:43 38.14100 140.93285 14 ft 13 kts
2026-04-11 11:43 38.14183 140.93269 16 ft 11 kts 342°
2026-04-11 11:43 38.14224 140.93213 16 ft 7 kts 269°
2026-04-11 11:43 38.14215 140.93156 18 ft 0 kts 264°
2026-04-11 11:44 38.14214 140.93151 18 ft 6 kts 264°
2026-04-11 11:44 38.14176 140.92761 19 ft 80 kts 262°
2026-04-11 11:44 38.14073 140.91800 18 ft 138 kts 261°
2026-04-11 11:45 38.13919 140.90574 610 ft 131 kts 265°
2026-04-11 11:45 38.13802 140.89474 1383 ft 126 kts 267°
2026-04-11 11:45 38.13696 140.88367 2017 ft 126 kts 266°
2026-04-11 11:45 38.13586 140.87278 2666 ft 123 kts 266°
2026-04-11 11:46 38.13478 140.86198 3308 ft 124 kts 267°
2026-04-11 11:46 38.13363 140.85027 3656 ft 145 kts 266°
2026-04-11 11:46 38.13200 140.83660 4011 ft 169 kts 257°
2026-04-11 11:46 38.12596 140.82229 4411 ft 199 kts 242°
2026-04-11 11:47 38.11717 140.80743 5007 ft 218 kts 238°
2026-04-11 11:47 38.10760 140.79221 5868 ft 222 kts 238°
2026-04-11 11:47 38.09798 140.77694 6884 ft 221 kts 238°
2026-04-11 11:47 38.08845 140.76153 7825 ft 222 kts 238°
2026-04-11 11:48 38.07895 140.74590 8756 ft 225 kts 239°
2026-04-11 11:48 38.06954 140.73025 9686 ft 228 kts 239°
2026-04-11 11:48 38.05987 140.71405 10388 ft 237 kts 239°
2026-04-11 11:48 38.04939 140.69629 10695 ft 260 kts 239°
2026-04-11 11:49 38.03834 140.67755 11169 ft 274 kts 239°
2026-04-11 11:49 38.02681 140.65808 11937 ft 278 kts 239°
2026-04-11 11:49 38.01580 140.63784 12729 ft 278 kts 246°
2026-04-11 11:49 38.00893 140.61504 13534 ft 278 kts 258°
2026-04-11 11:50 38.00693 140.59058 14253 ft 280 kts 267°
2026-04-11 11:50 38.00638 140.56578 14991 ft 281 kts 267°
2026-04-11 11:50 38.00572 140.54097 15712 ft 283 kts 266°
2026-04-11 11:50 38.00500 140.51593 16427 ft 285 kts 266°
2026-04-11 11:51 38.00427 140.49073 17213 ft 286 kts 267°
2026-04-11 11:51 38.00356 140.46535 17984 ft 288 kts 266°
2026-04-11 11:51 38.00285 140.43991 18635 ft 290 kts 266°
2026-04-11 11:51 38.00216 140.41429 19267 ft 292 kts 266°
2026-04-11 11:52 38.00144 140.38854 19876 ft 294 kts 266°
2026-04-11 11:52 38.00070 140.36254 20500 ft 296 kts 266°
2026-04-11 11:52 37.99996 140.33636 21094 ft 299 kts 266°
2026-04-11 11:52 37.99920 140.30992 21700 ft 301 kts 266°
2026-04-11 11:53 37.99840 140.28329 22281 ft 304 kts 266°
2026-04-11 11:53 37.99761 140.25668 22812 ft 307 kts 266°
2026-04-11 11:53 37.99679 140.22948 23403 ft 310 kts 266°
2026-04-11 11:53 37.99596 140.20213 23900 ft 311 kts 267°
2026-04-11 11:54 37.99514 140.17469 24406 ft 311 kts 267°
2026-04-11 11:54 37.99429 140.14722 24903 ft 312 kts 267°
2026-04-11 11:54 37.99345 140.11976 25392 ft 312 kts 267°
2026-04-11 11:54 37.99263 140.09225 25900 ft 312 kts 268°
2026-04-11 11:55 37.99180 140.06472 26405 ft 312 kts 268°
2026-04-11 11:55 37.99096 140.03719 26895 ft 313 kts 268°
2026-04-11 11:55 37.99010 140.00959 27377 ft 314 kts 268°
2026-04-11 11:55 37.98922 139.98193 27882 ft 314 kts 268°
2026-04-11 11:56 37.98835 139.95426 28355 ft 314 kts 268°
2026-04-11 11:56 37.98747 139.92655 28842 ft 314 kts 269°
2026-04-11 11:56 37.98657 139.89883 29276 ft 315 kts 268°
2026-04-11 11:56 37.98562 139.87106 29745 ft 316 kts 269°
2026-04-11 11:57 37.98465 139.84317 30142 ft 317 kts 269°
2026-04-11 11:57 37.98370 139.81549 30431 ft 320 kts 269°
2026-04-11 11:57 37.98274 139.78722 30701 ft 323 kts 269°
2026-04-11 11:57 37.98178 139.75861 30954 ft 327 kts 269°
2026-04-11 11:58 37.98082 139.72973 31225 ft 330 kts 269°
2026-04-11 11:58 37.97985 139.70063 31595 ft 330 kts 270°
2026-04-11 11:58 37.97886 139.67161 31976 ft 331 kts 269°
2026-04-11 11:58 37.97784 139.64241 32341 ft 332 kts 270°
2026-04-11 11:59 37.97683 139.61310 32703 ft 333 kts 270°
2026-04-11 11:59 37.97582 139.58362 33007 ft 336 kts 270°
2026-04-11 11:59 37.97477 139.55362 33332 ft 337 kts 270°
2026-04-11 11:59 37.97370 139.52392 33729 ft 337 kts 270°
2026-04-11 12:00 37.97263 139.49426 34086 ft 338 kts 270°
2026-04-11 12:00 37.97154 139.46486 34417 ft 338 kts 270°
2026-04-11 12:00 37.97042 139.43496 34716 ft 340 kts 270°
2026-04-11 12:00 37.96931 139.40501 34993 ft 341 kts 270°
2026-04-11 12:01 37.96818 139.37482 35239 ft 343 kts 270°
2026-04-11 12:01 37.96705 139.34461 35489 ft 344 kts 270°
2026-04-11 12:01 37.96591 139.31432 35732 ft 346 kts 269°
2026-04-11 12:01 37.96477 139.28374 35951 ft 348 kts 269°
2026-04-11 12:02 37.96365 139.25307 36172 ft 349 kts 269°
2026-04-11 12:02 37.96250 139.22225 36402 ft 351 kts 269°
2026-04-11 12:02 37.96132 139.19170 36621 ft 352 kts 269°
2026-04-11 12:02 37.96010 139.16025 36824 ft 354 kts 269°
2026-04-11 12:03 37.95704 139.12964 37011 ft 359 kts 260°
2026-04-11 12:03 37.94842 139.09960 37196 ft 368 kts 249°
2026-04-11 12:03 37.93456 139.07185 37372 ft 377 kts 243°
2026-04-11 12:03 37.91946 139.04474 37550 ft 378 kts 243°
2026-04-11 12:04 37.90424 139.01739 37739 ft 379 kts 243°
2026-04-11 12:04 37.88906 138.99005 37870 ft 381 kts 242°
2026-04-11 12:04 37.85852 138.93514 37906 ft 381 kts 242°
2026-04-11 12:05 37.82800 138.88037 37914 ft 381 kts 242°
2026-04-11 12:05 37.79745 138.82562 37929 ft 381 kts 243°
2026-04-11 12:06 37.76690 138.77091 37936 ft 381 kts 243°
2026-04-11 12:06 37.73632 138.71626 37940 ft 381 kts 243°
2026-04-11 12:07 37.70570 138.66163 37939 ft 381 kts 243°
2026-04-11 12:07 37.67504 138.60702 37935 ft 381 kts 243°
2026-04-11 12:08 37.64453 138.55276 37935 ft 382 kts 242°
2026-04-11 12:08 37.61373 138.49823 37929 ft 382 kts 242°
2026-04-11 12:09 37.58279 138.44364 37927 ft 382 kts 242°
2026-04-11 12:09 37.55163 138.38928 37930 ft 383 kts 242°
2026-04-11 12:10 37.52036 138.33500 37935 ft 383 kts 242°
2026-04-11 12:10 37.48919 138.28082 37966 ft 382 kts 242°
2026-04-11 12:11 37.45794 138.22658 37956 ft 382 kts 242°
2026-04-11 12:11 37.42675 138.17247 37956 ft 382 kts 242°
2026-04-11 12:12 37.39570 138.11876 37958 ft 382 kts 242°
2026-04-11 12:12 37.36448 138.06475 37959 ft 381 kts 242°
2026-04-11 12:13 37.33333 138.01086 37968 ft 381 kts 242°
2026-04-11 12:13 37.30206 137.95709 37969 ft 381 kts 242°
2026-04-11 12:14 37.27074 137.90340 37970 ft 381 kts 242°
2026-04-11 12:14 37.24011 137.84931 37974 ft 379 kts 244°
2026-04-11 12:15 37.21110 137.79436 37977 ft 377 kts 245°
2026-04-11 12:15 37.18194 137.73961 37976 ft 378 kts 244°
2026-04-11 12:16 37.15105 137.68601 37981 ft 379 kts 243°
2026-04-11 12:16 37.11978 137.63297 37977 ft 378 kts 243°
2026-04-11 12:17 37.08902 137.58019 37983 ft 377 kts 243°
2026-04-11 12:17 37.05829 137.52719 37986 ft 376 kts 243°
2026-04-11 12:18 37.02756 137.47438 37984 ft 375 kts 243°
2026-04-11 12:19 36.98028 137.39626 37992 ft 375 kts 242°
2026-04-11 12:19 36.94877 137.34458 37987 ft 373 kts 243°
2026-04-11 12:20 36.91743 137.29294 37982 ft 372 kts 243°
2026-04-11 12:20 36.88608 137.24143 37975 ft 372 kts 243°
2026-04-11 12:21 36.85503 137.19037 37965 ft 371 kts 243°
2026-04-11 12:21 36.82376 137.13913 37964 ft 371 kts 243°
2026-04-11 12:22 36.79348 137.08748 37960 ft 368 kts 245°
2026-04-11 12:22 36.76900 137.04356 37962 ft 367 kts 245°
2026-04-11 12:23 36.73990 136.99123 37961 ft 367 kts 245°
2026-04-11 12:23 36.71082 136.93962 37962 ft 366 kts 245°
2026-04-11 12:24 36.68142 136.88779 37972 ft 366 kts 245°
2026-04-11 12:24 36.65205 136.83616 37969 ft 365 kts 245°
2026-04-11 12:25 36.62267 136.78460 37978 ft 365 kts 245°
2026-04-11 12:25 36.59322 136.73313 37989 ft 366 kts 244°
2026-04-11 12:26 36.56302 136.68220 37987 ft 366 kts 244°
2026-04-11 12:26 36.53256 136.63153 37988 ft 365 kts 244°
2026-04-11 12:27 36.50223 136.58091 37983 ft 365 kts 244°
2026-04-11 12:27 36.47198 136.53031 37982 ft 364 kts 244°
2026-04-11 12:28 36.44174 136.47983 37980 ft 364 kts 244°
2026-04-11 12:28 36.41155 136.42936 37972 ft 364 kts 244°
2026-04-11 12:28 36.39822 136.40331 37973 ft 353 kts 252°
2026-04-11 12:29 36.38936 136.37538 37968 ft 344 kts 260°
2026-04-11 12:29 36.37562 136.31866 37977 ft 344 kts 259°
2026-04-11 12:30 36.36172 136.26222 37973 ft 344 kts 259°
2026-04-11 12:30 36.34766 136.20556 37987 ft 344 kts 259°
2026-04-11 12:31 36.33356 136.14876 37991 ft 344 kts 259°
2026-04-11 12:31 36.31955 136.09205 37994 ft 344 kts 259°
2026-04-11 12:32 36.30553 136.03545 37996 ft 344 kts 259°
2026-04-11 12:32 36.29140 135.97875 37997 ft 343 kts 259°
2026-04-11 12:33 36.27727 135.92233 37994 ft 343 kts 259°
2026-04-11 12:33 36.26316 135.86598 37996 ft 342 kts 259°
2026-04-11 12:34 36.24910 135.80975 37999 ft 342 kts 259°
2026-04-11 12:34 36.23499 135.75347 37997 ft 341 kts 259°
2026-04-11 12:35 36.22091 135.69745 37996 ft 341 kts 259°
2026-04-11 12:35 36.20680 135.64139 38001 ft 341 kts 259°
2026-04-11 12:36 36.19265 135.58544 38001 ft 340 kts 259°
2026-04-11 12:36 36.17852 135.52951 37997 ft 340 kts 259°
2026-04-11 12:37 36.16442 135.47399 37995 ft 340 kts 259°
2026-04-11 12:37 36.15018 135.41822 37999 ft 340 kts 259°
2026-04-11 12:38 36.13593 135.36247 38002 ft 340 kts 259°
2026-04-11 12:38 36.12169 135.30689 37997 ft 339 kts 259°
2026-04-11 12:39 36.10734 135.25086 37995 ft 339 kts 259°
2026-04-11 12:39 36.09311 135.19529 37994 ft 339 kts 259°
2026-04-11 12:40 36.07895 135.14012 37990 ft 339 kts 259°
2026-04-11 12:40 36.06464 135.08463 37992 ft 339 kts 259°
2026-04-11 12:41 36.05032 135.02911 37993 ft 339 kts 259°
2026-04-11 12:41 36.03605 134.97369 37992 ft 338 kts 259°
2026-04-11 12:42 36.02166 134.91836 37997 ft 338 kts 259°
2026-04-11 12:42 36.00723 134.86308 37995 ft 338 kts 259°
2026-04-11 12:43 35.98562 134.78026 37992 ft 338 kts 259°
2026-04-11 12:43 35.97119 134.72502 37990 ft 337 kts 259°
2026-04-11 12:44 35.95676 134.66992 37991 ft 337 kts 259°
2026-04-11 12:44 35.94233 134.61485 37991 ft 337 kts 259°
2026-04-11 12:45 35.92789 134.55991 37986 ft 337 kts 259°
2026-04-11 12:45 35.91340 134.50504 37981 ft 336 kts 259°
2026-04-11 12:46 35.89898 134.45020 37975 ft 336 kts 259°
2026-04-11 12:46 35.88447 134.39536 37972 ft 336 kts 259°
2026-04-11 12:47 35.86994 134.34060 37964 ft 336 kts 259°
2026-04-11 12:47 35.85546 134.28624 37962 ft 336 kts 259°
2026-04-11 12:48 35.84085 134.23151 37957 ft 336 kts 259°
2026-04-11 12:48 35.82628 134.17670 37964 ft 337 kts 259°
2026-04-11 12:49 35.81164 134.12194 37965 ft 337 kts 259°
2026-04-11 12:49 35.79698 134.06712 37965 ft 337 kts 259°
2026-04-11 12:50 35.78231 134.01237 37964 ft 337 kts 259°
2026-04-11 12:50 35.76763 133.95765 37961 ft 336 kts 259°
2026-04-11 12:51 35.75288 133.90299 37966 ft 336 kts 259°
2026-04-11 12:51 35.73811 133.84840 37971 ft 336 kts 259°
2026-04-11 12:52 35.72326 133.79372 37975 ft 336 kts 259°
2026-04-11 12:52 35.70843 133.73910 37978 ft 336 kts 259°
2026-04-11 12:53 35.69358 133.68453 37980 ft 336 kts 259°
2026-04-11 12:53 35.67874 133.63006 37984 ft 336 kts 259°
2026-04-11 12:54 35.66393 133.57571 37972 ft 336 kts 259°
2026-04-11 12:54 35.64903 133.52117 37968 ft 336 kts 259°
2026-04-11 12:55 35.63408 133.46673 37963 ft 336 kts 258°
2026-04-11 12:55 35.61943 133.41269 37951 ft 335 kts 259°
2026-04-11 12:56 35.60451 133.35832 37952 ft 336 kts 258°
2026-04-11 12:56 35.58944 133.30406 37951 ft 336 kts 258°
2026-04-11 12:57 35.57439 133.24979 37945 ft 336 kts 258°
2026-04-11 12:57 35.55930 133.19527 37943 ft 336 kts 258°
2026-04-11 12:58 35.54423 133.14098 37942 ft 336 kts 258°
2026-04-11 12:58 35.52659 133.08764 37938 ft 347 kts 248°
2026-04-11 12:59 35.49714 133.03940 37934 ft 355 kts 244°
2026-04-11 12:59 35.46698 132.99147 37928 ft 355 kts 244°
2026-04-11 13:00 35.43698 132.94385 37929 ft 355 kts 244°
2026-04-11 13:00 35.40677 132.89591 37923 ft 355 kts 244°
2026-04-11 13:01 35.36147 132.82399 37935 ft 356 kts 244°
2026-04-11 13:02 35.33127 132.77606 37946 ft 355 kts 244°
2026-04-11 13:02 35.30101 132.72818 37949 ft 356 kts 244°
2026-04-11 13:03 35.27064 132.68026 37963 ft 356 kts 244°
2026-04-11 13:03 35.24021 132.63223 37972 ft 356 kts 244°
2026-04-11 13:04 35.20982 132.58440 37976 ft 357 kts 244°
2026-04-11 13:04 35.17934 132.53651 37981 ft 357 kts 244°
2026-04-11 13:05 35.14883 132.48856 37982 ft 357 kts 244°
2026-04-11 13:05 35.11856 132.44097 37983 ft 357 kts 244°
2026-04-11 13:06 35.08795 132.39307 37985 ft 358 kts 244°
2026-04-11 13:06 35.05734 132.34513 37989 ft 358 kts 244°
2026-04-11 13:07 35.02679 132.29724 37988 ft 358 kts 244°
2026-04-11 13:07 34.99610 132.24935 37998 ft 358 kts 243°
2026-04-11 13:08 34.96537 132.20150 37999 ft 358 kts 244°
2026-04-11 13:08 34.94168 132.16463 38004 ft 358 kts 243°
2026-04-11 13:09 34.91095 132.11683 38003 ft 358 kts 243°
2026-04-11 13:09 34.88010 132.06897 38004 ft 359 kts 243°
2026-04-11 13:10 34.84424 132.01344 37999 ft 359 kts 243°
2026-04-11 13:10 34.81838 131.97344 37999 ft 359 kts 243°
2026-04-11 13:11 34.78756 131.92566 37986 ft 359 kts 243°
2026-04-11 13:11 34.75665 131.87790 37990 ft 359 kts 243°
2026-04-11 13:12 34.72563 131.83014 37986 ft 360 kts 243°
2026-04-11 13:12 34.69462 131.78242 37985 ft 360 kts 243°
2026-04-11 13:13 34.66351 131.73465 37985 ft 360 kts 243°
2026-04-11 13:13 34.63242 131.68694 37982 ft 360 kts 243°
2026-04-11 13:14 34.60150 131.63956 37986 ft 361 kts 243°
2026-04-11 13:14 34.57026 131.59180 37980 ft 361 kts 243°
2026-04-11 13:15 34.53900 131.54409 37986 ft 361 kts 243°
2026-04-11 13:15 34.50775 131.49643 37981 ft 361 kts 243°
2026-04-11 13:16 34.47651 131.44879 37980 ft 361 kts 243°
2026-04-11 13:16 34.44521 131.40111 37975 ft 361 kts 243°
2026-04-11 13:17 34.41395 131.35353 37977 ft 361 kts 243°
2026-04-11 13:17 34.38262 131.30595 37981 ft 362 kts 243°
2026-04-11 13:18 34.35141 131.25878 37978 ft 362 kts 243°
2026-04-11 13:18 34.31992 131.21114 37987 ft 362 kts 243°
2026-04-11 13:19 34.28843 131.16356 37987 ft 363 kts 243°
2026-04-11 13:19 34.25690 131.11603 37992 ft 362 kts 243°
2026-04-11 13:20 34.22543 131.06862 37977 ft 361 kts 243°
2026-04-11 13:20 34.19401 131.02131 37804 ft 361 kts 242°
2026-04-11 13:20 34.17675 130.99900 37667 ft 369 kts 238°
2026-04-11 13:21 34.15872 130.97679 37301 ft 372 kts 237°
2026-04-11 13:21 34.14050 130.95434 36534 ft 376 kts 237°
2026-04-11 13:21 34.12203 130.93166 35763 ft 381 kts 236°
2026-04-11 13:21 34.10333 130.90872 34918 ft 386 kts 235°
2026-04-11 13:22 34.08432 130.88538 34012 ft 394 kts 234°
2026-04-11 13:22 34.06497 130.86167 33061 ft 399 kts 233°
2026-04-11 13:22 34.04559 130.83804 32523 ft 394 kts 233°
2026-04-11 13:22 34.02662 130.81502 31923 ft 390 kts 233°
2026-04-11 13:23 34.00758 130.79192 31339 ft 387 kts 233°
2026-04-11 13:23 33.98875 130.76903 30759 ft 383 kts 233°
2026-04-11 13:23 33.97004 130.74624 30192 ft 380 kts 233°
2026-04-11 13:23 33.95171 130.72392 29583 ft 377 kts 233°
2026-04-11 13:24 33.93332 130.70153 29034 ft 372 kts 232°
2026-04-11 13:24 33.91526 130.67954 28499 ft 368 kts 232°
2026-04-11 13:24 33.89729 130.65765 27970 ft 365 kts 232°
2026-04-11 13:24 33.87954 130.63602 27470 ft 363 kts 232°
2026-04-11 13:25 33.86186 130.61446 26966 ft 360 kts 232°
2026-04-11 13:25 33.84435 130.59313 26481 ft 358 kts 231°
2026-04-11 13:25 33.82683 130.57182 26005 ft 356 kts 231°
2026-04-11 13:25 33.80942 130.55070 25546 ft 355 kts 231°
2026-04-11 13:26 33.79201 130.52964 25090 ft 354 kts 231°
2026-04-11 13:26 33.77467 130.50871 24645 ft 353 kts 230°
2026-04-11 13:26 33.75734 130.48776 24200 ft 353 kts 230°
2026-04-11 13:26 33.74143 130.46854 23795 ft 353 kts 230°
2026-04-11 13:27 33.72434 130.44790 23292 ft 347 kts 230°
2026-04-11 13:27 33.70750 130.42758 22853 ft 336 kts 230°
2026-04-11 13:27 33.69108 130.40776 22433 ft 333 kts 230°
2026-04-11 13:27 33.67345 130.38968 22014 ft 336 kts 221°
2026-04-11 13:28 33.65314 130.37537 21584 ft 339 kts 213°
2026-04-11 13:28 33.63214 130.36252 21143 ft 338 kts 213°
2026-04-11 13:28 33.61126 130.34974 20717 ft 336 kts 213°
2026-04-11 13:28 33.59042 130.33699 20284 ft 336 kts 213°
2026-04-11 13:29 33.56966 130.32426 19837 ft 335 kts 213°
2026-04-11 13:29 33.54887 130.31146 19411 ft 336 kts 212°
2026-04-11 13:29 33.52804 130.29864 18977 ft 336 kts 212°
2026-04-11 13:29 33.50726 130.28587 18540 ft 336 kts 212°
2026-04-11 13:30 33.48641 130.27307 18082 ft 337 kts 212°
2026-04-11 13:30 33.46555 130.26029 17627 ft 336 kts 212°
2026-04-11 13:30 33.44478 130.24757 17205 ft 335 kts 211°
2026-04-11 13:30 33.42406 130.23488 16780 ft 334 kts 211°
2026-04-11 13:31 33.40333 130.22221 16358 ft 335 kts 211°
2026-04-11 13:31 33.38254 130.20954 15937 ft 335 kts 211°
2026-04-11 13:31 33.36179 130.19688 15519 ft 335 kts 211°
2026-04-11 13:31 33.34071 130.18495 15099 ft 338 kts 204°
2026-04-11 13:32 33.31777 130.17787 14679 ft 343 kts 192°
2026-04-11 13:32 33.29383 130.17581 14264 ft 345 kts 186°
2026-04-11 13:32 33.26975 130.17436 13792 ft 348 kts 186°
2026-04-11 13:32 33.24561 130.17284 13310 ft 349 kts 186°
2026-04-11 13:33 33.22138 130.17129 12869 ft 347 kts 186°
2026-04-11 13:33 33.19724 130.16973 12431 ft 347 kts 186°
2026-04-11 13:33 33.17346 130.16820 11991 ft 346 kts 186°
2026-04-11 13:33 33.14954 130.16668 11535 ft 340 kts 186°
2026-04-11 13:34 33.12621 130.16521 11112 ft 331 kts 186°
2026-04-11 13:34 33.10353 130.16377 10678 ft 322 kts 186°
2026-04-11 13:34 33.08146 130.16239 10277 ft 313 kts 185°
2026-04-11 13:34 33.06038 130.16110 10183 ft 293 kts 185°
2026-04-11 13:35 33.04173 130.15997 10073 ft 286 kts 186°
2026-04-11 13:35 33.02223 130.15873 9938 ft 278 kts 186°
2026-04-11 13:35 33.00257 130.15745 9328 ft 286 kts 185°
2026-04-11 13:35 32.98280 130.15614 8806 ft 283 kts 185°
2026-04-11 13:36 32.96315 130.15488 8299 ft 281 kts 185°
2026-04-11 13:36 32.94367 130.15366 7807 ft 279 kts 184°
2026-04-11 13:36 32.92434 130.15246 7307 ft 277 kts 184°
2026-04-11 13:36 32.90502 130.15122 6820 ft 278 kts 184°
2026-04-11 13:37 32.88574 130.14997 6307 ft 277 kts 184°
2026-04-11 13:37 32.86664 130.14876 5786 ft 273 kts 183°
2026-04-11 13:37 32.84778 130.14757 5385 ft 267 kts 183°
2026-04-11 13:37 32.82991 130.14644 5334 ft 251 kts 183°
2026-04-11 13:38 32.81303 130.14322 5259 ft 242 kts 198°
2026-04-11 13:38 32.79802 130.13520 5145 ft 234 kts 213°
2026-04-11 13:38 32.78504 130.12287 4604 ft 243 kts 229°
2026-04-11 13:38 32.77690 130.10622 4277 ft 231 kts 258°
2026-04-11 13:39 32.77636 130.08760 3943 ft 220 kts 286°
2026-04-11 13:39 32.78081 130.07078 3620 ft 215 kts 290°
2026-04-11 13:39 32.78668 130.05461 3228 ft 212 kts 305°
2026-04-11 13:39 32.79652 130.04176 2916 ft 211 kts 319°
2026-04-11 13:40 32.80769 130.02992 2617 ft 209 kts 319°
2026-04-11 13:40 32.81801 130.01892 2354 ft 195 kts 319°
2026-04-11 13:40 32.82786 130.00844 2093 ft 188 kts 319°
2026-04-11 13:40 32.83745 129.99823 1842 ft 181 kts 318°
2026-04-11 13:41 32.84656 129.98853 1619 ft 169 kts 319°
2026-04-11 13:41 32.85497 129.97957 1403 ft 158 kts 319°
2026-04-11 13:41 32.86294 129.97108 1194 ft 150 kts 319°
2026-04-11 13:41 32.87056 129.96296 1002 ft 144 kts 319°
2026-04-11 13:42 32.87786 129.95518 814 ft 138 kts 319°
2026-04-11 13:42 32.88502 129.94755 643 ft 138 kts 319°
2026-04-11 13:42 32.89215 129.93994 464 ft 137 kts 319°
2026-04-11 13:42 32.89922 129.93239 278 ft 137 kts 319°
2026-04-11 13:43 32.90630 129.92482 95 ft 135 kts 319°
2026-04-11 13:43 32.91306 129.91756 21 ft 121 kts 318°
2026-04-11 13:43 32.91853 129.91179 17 ft 83 kts 319°
2026-04-11 13:43 32.92151 129.90852 16 ft 34 kts 319°
2026-04-11 13:44 32.92292 129.90709 17 ft 26 kts 320°
2026-04-11 13:44 32.92396 129.90687 17 ft 12 kts 42°
2026-04-11 13:44 32.92453 129.90773 16 ft 14 kts 69°
2026-04-11 13:44 32.92407 129.90859 16 ft 14 kts 141°
2026-04-11 13:45 32.92331 129.90943 18 ft 16 kts 135°
2026-04-11 13:45 32.92245 129.91034 17 ft 17 kts 138°
2026-04-11 13:45 32.92151 129.91135 16 ft 19 kts 137°
2026-04-11 13:45 32.92048 129.91245 15 ft 20 kts 138°
2026-04-11 13:46 32.91940 129.91361 17 ft 21 kts 136°
2026-04-11 13:46 32.91841 129.91466 17 ft 17 kts 139°
2026-04-11 13:46 32.91749 129.91562 17 ft 18 kts 137°
2026-04-11 13:46 32.91654 129.91665 18 ft 18 kts 138°
2026-04-11 13:47 32.91569 129.91755 17 ft 15 kts 138°
2026-04-11 13:47 32.91496 129.91833 18 ft 13 kts 139°
2026-04-11 13:47 32.91435 129.91899 16 ft 10 kts 135°
2026-04-11 13:47 32.91388 129.91955 17 ft 9 kts 135°
2026-04-11 13:48 32.91344 129.92000 17 ft 8 kts 139°
2026-04-11 13:48 32.91346 129.92038 16 ft 4 kts 44°
2026-04-11 13:48 32.91369 129.92063 17 ft 6 kts 45°
2026-04-11 13:48 32.91389 129.92090 17 ft 6 kts 47°
2026-04-11 13:49 32.91416 129.92126 18 ft 3 kts 47°
2026-04-11 13:49 32.91427 129.92141 18 ft 2 kts 47°
2026-04-11 13:49 32.91429 129.92142 18 ft 0 kts 47°
2026-04-11 13:52 32.91429 129.92143 18 ft 0 kts 47°